Flag Weather past 2 weeks in Ingelheim am Rhein, Rhineland-Palatinate, Germany

Now
43 °F

Fog.


Feels Like: 43 °F
Forecast: 34 / 41 °F
Wind: No wind

Location: Wiesbaden Airport

Current Time: Nov 24, 2014 at 10:17:12 AM

Latest Report: Nov 24, 2014 at 9:04 AM


Visibility: 5 mi

Pressure: 30.20 "Hg

Humidity: 100%

Dew point: 43 °F

Location of Ingelheim am RheinLocation

Historic Weather in Ingelheim am Rhein — Graph

°F

Ingelheim am Rhein temperature yesterday

Maximum temperature yesterday: 46 °F (at 1:58 PM)
Minimum temperature yesterday: 39 °F (at 8:00 AM)
Average temperature yesterday: 41 °F

Past Weeks' High & Low Weather Summary

 TemperatureHumidityPressure
High54 °F (Nov 14, 1:58 PM)100% (Nov 10, 3:04 AM)30.35 "Hg (Nov 10, 3:04 AM)
Low39 °F (Nov 22, 4:58 AM)71% (Nov 21, 1:58 PM)29.53 "Hg (Nov 16, 5:59 AM)
Average46 °F94%29.92 "Hg
* Reported Nov 9 9:58 AM — Nov 24 9:04 AM, Ingelheim am Rhein, Weather by CustomWeather, © 2014

Note: Actual official high and low records may vary slightly from our data, if they occured in-between our weather recording intervals... More about our weather records

Advertising

Ingelheim am Rhein weather history for previous 24 hours

 ConditionsComfort  
Time TempWeatherWind HumidityBarometerVisibility
9:04 AM
Nov 24
43 °FFog.No wind100%30.20 "Hg5 mi
8:58 AM43 °FFog.No wind100%30.22 "Hg5 mi
7:58 AM43 °FFog.3 mph100%30.20 "Hg4 mi
6:58 AM43 °FFog.2 mph100%30.17 "Hg6 mi
5:58 AM41 °FFog.2 mph100%30.15 "Hg5 mi
4:58 AM40 °FFog.No wind100%30.14 "Hg2 mi
3:59 AM41 °FFog.2 mph100%30.12 "Hg2 mi
3:02 AM41 °FFog.No wind100%30.10 "Hg2 mi
1:58 AM41 °FFog.No wind100%30.13 "Hg1 mi
12:58 AM41 °FFog.No wind100%30.13 "Hg2 mi
12:00 AM41 °FFog.No wind100%30.11 "Hg2 mi
11:03 PM
Nov 23
41 °FFog.No wind100%30.11 "Hg1 mi
11:00 PM41 °FFog.No wind100%30.11 "Hg1 mi
9:58 PM41 °FFog.No wind100%30.13 "Hg3 mi
8:58 PM41 °FFog.No wind100%30.13 "Hg0 mi
7:58 PM41 °FFog.No wind100%30.13 "Hg0 mi
7:02 PM41 °FFog.2 mph100%30.11 "Hg0 mi
6:58 PM41 °FFog.3 mph100%30.13 "Hg0 mi
5:58 PM41 °FFog.3 mph100%30.14 "Hg4 mi
5:01 PM41 °FFog.3 mph100%30.12 "Hg3 mi
3:58 PM43 °FFog.6 mph100%30.15 "Hg5 mi
2:58 PM45 °FFog.5 mph93%30.16 "Hg6 mi
1:58 PM46 °FScattered clouds.2 mph87%30.17 "HgN/A
1:03 PM43 °FFog.2 mph100%30.18 "Hg6 mi
12:58 PM43 °FFog.3 mph99%30.19 "Hg6 mi
11:58 AM41 °FFog.2 mph100%30.22 "Hg3 mi
11:02 AM41 °FFog.6 mph100%30.22 "Hg3 mi
10:58 AM41 °FFog.5 mph100%30.24 "Hg2 mi
Weather by CustomWeather, © 2014

See weather overviewHow to use our weather pages